STARLINK-36617, 67634

Orbit data source: Space-Track

STARLINK-36617, 67634 is a payload satellite owned by SpaceX/Seattle (US) in LEO that was launched on Fri, 30 Jan 2026 UTC via an FALCON 9 launch vehicle from the Air Force Eastern Test Range (AFETR). Payload-class satellites include a variety of spacecraft equipped with specific instruments for various scientific and technological missions. These include communications satellites like Starlink; space stations such as the ISS; scientific satellites like the Hubble; Earth observation satellites from companies like Planet Labs, Umbra, and HawkEye 360; GPS; miniature CubeSats for education and research; and military/defense satellites.

Loading next visibility...
Identifier
67634, 2026-020T
Orbit
LEO
Country
Flag of USUS
Related business
Manufacturer
SpaceX/Seattle
Mission
Operational Commercial Communications
Bus & Motor
STARLINK V2MO, Unknown motor
Mass
575 kg wet, ~530 kg dry
Launch date (UTC)
2026-01-30 (3 months ago)
Launch vehicle
FALCON 9
Launch site
Air Force Eastern Test Range (AFETR)
Object type
Payload
Rocket body
Debris
Shape & HBR
Box + 2 Pan, 17.7 m
Radar Cross Section
36.964 m²

Expand to show TLE details & history
Last TLE update: 7 hours ago

TLE from 7 hours ago
0 STARLINK-36617
1 67634U 26020T   26112.16667823 -.00006922  00000-0 -24230-3 0  9992
2 67634  43.0006 254.6976 0001339 265.9186 236.1648 15.27574504  5862
Epoch: 2026-04-22T04:00Z
TLE epoch observation values (Epoch: 2026-04-22T04:00:00.999Z)
Latitude
24.87372°
Longitude
134.82981°
Altitude
483.421 km
Speed
7.627 km/s
True Right ascension
03h 00m 15s
True Declination
24° 44' 15"
Sunlit
Object was in daylight at epoch
Visualization orbit readout
Latitude
Unknown
Longitude
Unknown
Altitude
Unknown
Speed
Unknown
Apparent Right ascension
Unknown
Apparent Declination
Unknown
Sunlit
N/A
Visualization observer readout
Local Sidereal Time
18:18:42
Azimuth
Unknown
Elevation
Unknown
Doppler factor
Unknown
Orbital elements
Apogee altitude
485.93 km
Perigee altitude
484.092 km
Semi-major axis
6,863.148 km
Eccentricity
0.00013
Inclination
43.0006°
RAAN
254.6976°
Arg. of periapsis
265.9186°
True anomaly
236.15206°
Mean anomaly
236.1648°
Eccentric anomaly
236.15843°
Mean motion
3.81732 °/min
Orbital period
94.31 mins
BSTAR
-0.0002423
Loading maneuver chart data...
Computing Atmospheric mass density...
Loading historical data...
Loading historical data...
Loading historical data...
Loading historical data...
Loading historical data...
Loading historical data...
Loading historical data...

Documentation

Showing up to 5 results
|